Change the Weather History Date:

Friday, April 19, 2013

  Actual Average Record
Temperature  
Mean Temperature 81 °F -  
Max Temperature 91 °F 83 °F 92 °F (1967)
Min Temperature 71 °F 58 °F 44 °F (2001)
Cooling Degree Days 16    
Growing Degree Days 31 (Base 50)    
Moisture  
Dew Point 70 °F    
Average Humidity 77    
Maximum Humidity 97    
Minimum Humidity 41    
Precipitation  
Precipitation 0.37 in - - ()
Sea Level Pressure  
Sea Level Pressure 29.99 in    
Wind  
Wind Speed 10 mph (South)    
Max Wind Speed 21 mph    
Max Gust Speed 26 mph    
Visibility 10 miles    
Events Rain    
Averages and records for this station are not official NWS values.
T = Trace of Precipitation, MM = Missing Value Source: NWS Daily Summary

Daily Weather History Graph

Daily Weather History Graph

Search for Another Location

Airport or City:

Trip Planner

Search our weather history database for the weather conditions in past years. The results will help you decide how hot, cold, wet, or windy it might be!

Date:

Astronomy

Apr. 19, 2013 Rise Set
Actual Time 6:54 AM EDT 7:53 PM EDT
Civil Twilight 6:30 AM EDT 8:17 PM EDT
Nautical Twilight 6:01 AM EDT 8:46 PM EDT
Astronomical Twilight 5:32 AM EDT 9:16 PM EDT
Moon 2:05 PM EDT (4/19) 2:39 AM EDT (4/19)
Length of Visible Light 13h 47m
Length of Day
12h 58m
First Quarter, 61% of the Moon is Illuminated
Apr 19
First Quarter
Apr 25
Full
May 2
Last Quarter
May 9
New
May 18
First Quarter

Hourly Weather History & Observations

Time (EDT) Temp. Heat Index Dew Point Humidity Pressure Visibility Wind Dir Wind Speed Gust Speed Precip Events Conditions
12:53 AM 75.9 °F - 70.0 °F 82% 30.02 in 10.0 mi SSE 13.8 mph - N/A   Overcast
1:53 AM 75.9 °F - 70.0 °F 82% 30.01 in 10.0 mi SSE 12.7 mph - N/A   Overcast
2:30 AM 75.2 °F - 71.6 °F 89% 30.01 in 10.0 mi South 8.1 mph - N/A   Mostly Cloudy
2:44 AM 75.2 °F - 69.8 °F 83% 30.01 in 10.0 mi South 8.1 mph - N/A   Mostly Cloudy
2:53 AM 75.0 °F - 70.0 °F 84% 30.01 in 10.0 mi SSW 5.8 mph - N/A   Mostly Cloudy
3:29 AM 73.4 °F - 69.8 °F 88% 30.00 in 10.0 mi South 8.1 mph - N/A   Mostly Cloudy
3:38 AM 73.4 °F - 69.8 °F 88% 30.00 in 10.0 mi South 6.9 mph - N/A   Mostly Cloudy
3:53 AM 73.9 °F - 70.0 °F 87% 30.00 in 10.0 mi SSW 5.8 mph - N/A   Scattered Clouds
4:53 AM 73.0 °F - 71.1 °F 93% 30.00 in 10.0 mi South 6.9 mph - N/A   Scattered Clouds
5:17 AM 73.4 °F - 71.6 °F 94% 30.00 in 10.0 mi South 5.8 mph - N/A   Mostly Cloudy
5:38 AM 73.4 °F - 71.6 °F 94% 30.00 in 10.0 mi South 8.1 mph - N/A   Mostly Cloudy
5:53 AM 73.0 °F - 71.1 °F 93% 29.99 in 10.0 mi SSE 6.9 mph - N/A   Mostly Cloudy
6:28 AM 73.4 °F - 71.6 °F 94% 30.00 in 10.0 mi SSE 6.9 mph - N/A   Scattered Clouds
6:53 AM 72.0 °F - 71.1 °F 97% 30.01 in 10.0 mi SSE 5.8 mph - N/A   Mostly Cloudy
7:13 AM 71.6 °F - 69.8 °F 94% 30.02 in 10.0 mi SSE 6.9 mph - N/A   Scattered Clouds
7:53 AM 73.0 °F - 71.1 °F 93% 30.03 in 10.0 mi SSE 8.1 mph - N/A   Partly Cloudy
8:53 AM 75.9 °F - 71.1 °F 85% 30.04 in 10.0 mi South 11.5 mph - N/A   Partly Cloudy
9:08 AM 77.0 °F - 71.6 °F 83% 30.04 in 10.0 mi South 12.7 mph - N/A   Mostly Cloudy
9:53 AM 79.0 °F - 71.1 °F 77% 30.03 in 10.0 mi South 16.1 mph - N/A   Mostly Cloudy
10:21 AM 82.4 °F 87.2 °F 71.6 °F 70% 30.03 in 10.0 mi South 13.8 mph 23.0 mph N/A   Mostly Cloudy
10:53 AM 82.9 °F 87.0 °F 70.0 °F 65% 30.03 in 10.0 mi South 10.4 mph - N/A   Mostly Cloudy
11:53 AM 86.0 °F 88.8 °F 66.9 °F 53% 30.02 in 10.0 mi South 13.8 mph 24.2 mph N/A   Mostly Cloudy
12:53 PM 88.0 °F 90.7 °F 66.9 °F 49% 30.00 in 10.0 mi SSW 13.8 mph 20.7 mph N/A   Mostly Cloudy
1:00 PM 86.0 °F 88.2 °F 66.2 °F 51% 30.00 in 10.0 mi South 12.7 mph 21.9 mph N/A   Partly Cloudy
1:53 PM 90.0 °F 92.4 °F 66.0 °F 45% 29.98 in 10.0 mi South 15.0 mph 21.9 mph N/A   Partly Cloudy
2:53 PM 88.0 °F 89.6 °F 64.9 °F 46% 29.95 in 10.0 mi SSW 13.8 mph 20.7 mph N/A   Partly Cloudy
3:53 PM 91.0 °F 92.6 °F 64.0 °F 41% 29.91 in 10.0 mi South 15.0 mph 24.2 mph N/A   Clear
4:53 PM 87.1 °F 88.9 °F 64.9 °F 48% 29.91 in 10.0 mi West 16.1 mph 20.7 mph N/A   Overcast
4:59 PM 80.6 °F 83.9 °F 69.8 °F 70% 29.92 in 5.0 mi West 20.7 mph 26.5 mph 0.07 in Rain Rain
5:07 PM 77.0 °F - 69.8 °F 78% 29.94 in 1.2 mi SW 17.3 mph 24.2 mph 0.16 in Rain Rain
5:19 PM 78.8 °F - 69.8 °F 74% 29.93 in 8.0 mi SW 9.2 mph - 0.36 in Rain Light Rain
5:53 PM 75.9 °F - 70.0 °F 82% 29.91 in 9.0 mi South 10.4 mph 20.7 mph 0.37 in Rain Light Rain
6:53 PM 81.0 °F 84.9 °F 71.1 °F 72% 29.92 in 10.0 mi WSW 10.4 mph - 0.00 in   Clear
7:53 PM 78.1 °F - 72.0 °F 81% 29.95 in 10.0 mi SE 9.2 mph - N/A   Mostly Cloudy
8:53 PM 75.9 °F - 70.0 °F 82% 29.98 in 10.0 mi SSE 9.2 mph - N/A   Mostly Cloudy
9:53 PM 75.0 °F - 70.0 °F 84% 30.00 in 10.0 mi South 9.2 mph - N/A   Mostly Cloudy
10:53 PM 75.0 °F - 69.1 °F 82% 30.01 in 10.0 mi South 8.1 mph - N/A   Clear
11:53 PM 73.9 °F - 69.1 °F 85% 30.01 in 10.0 mi South 5.8 mph - N/A   Clear